User: anonymous   Login
Location: Dompnac
(44.5644°N, 4.1026°E)
Time: 09:16:38
(UTC+00:00)
Language:

PCSat - Orbit

View from above orbital plane
View from above orbital plane
View from above satellite
View from above satellite

Ground track
Ground track

The orbit data is extracted from the following two-line orbital elements,

1 26931U 01043C   21065.68853128 -.00000009  00000-0  28349-4 0  9994
2 26931  67.0515 185.6502 0007390 267.6866  92.3389 14.30608628 14540
Epoch (UTC): 06 March 2021 16:31:29
Eccentricity: 0.0007390
inclination: 67.0515°
perigee height: 784 km
apogee height: 795 km
right ascension of ascending node: 185.6502°
argument of perigee: 267.6866°
revolutions per day: 14.30608628
mean anomaly at epoch: 92.3389°
orbit number at epoch: 1454

The dashed part of the orbit path shows where the satellite is in the earth's shadow,  

DLR